Location: Balsareny
(41.8670°N, 1.8830°E)
Time: 07:20:07
(UTC+02:00)

X-37B - Pass Details

Date: 29 June 2021
Orbit: 383 x 392 km, 45.0° (Epoch: 01 July)

Event Time Altitude Azimuth Distance (km) Brightness Sun altitude
Rises 23:04:24 0° 282° (WNW) 2,257 5.4 -13.8°
Reaches altitude 10° 23:06:31 10° 289° (WNW) 1,402 4.3 -14.1°
Maximum altitude 23:09:34 45° 4° (N) 532 1.6 -14.4°
Enters shadow 23:12:17 12° 77° (ENE) 1,267 2.9 -14.7°
